Regional Weather Roundup
Issued by NWS

Home | Current Version | Previous Version | Graphics & Text | Print | Product List | Glossary On
Versions: 1 2 3 4 5 6 7 8 9 10 11 12 13 14 15 16 17 18 19 20 21 22 23 24 25 26 27 28 29 30 31 32 33 34 35 36 37 38 39 40 41 42 43 44 45 46 47 48 49 50
000
ASUS45 KTFX 050404
RWRMT
MONTANA REGIONAL WEATHER ROUNDUP
NATIONAL WEATHER SERVICE GREAT FALLS MT
1000 PM MDT FRI SEP 04 2015

NOTE: "FAIR" INDICATES FEW OR NO CLOUDS BELOW 12000 FEET WITH NO
SIGNIFICANT WEATHER AND/OR OBSTRUCTIONS TO VISIBILITY.

MTZ001>007-043-050500-
WEST OF THE DIVIDE

CITY           SKY/WX    TMP DP  RH WIND       PRES   REMARKS
KALISPELL      MOCLDY    53  37  54 NE17G23   29.94R
MISSOULA       MOCLDY    57  42  57 E10G18    29.88S
BUTTE          CLOUDY    46  42  86 NW7       29.95F
MULLAN PASS    LGT RAIN  44  37  76 SE10G21   29.93R
DEER LODGE       N/A     48  45  87 N9        29.98F
EUREKA           N/A     57  34  41 N8          N/A
HAMILTON         N/A     54  45  71 NW3       29.86R
LIBBY            N/A     59  39  47 CALM      29.92R
$$

MTZ008-052>055-050500-
SOUTHWEST MONTANA

CITY           SKY/WX    TMP DP  RH WIND       PRES   REMARKS
BOZEMAN        CLOUDY    53  49  86 CALM      29.91F
DILLON         CLOUDY    50  41  71 E5        29.88R
W YELLOWSTONE  RAIN      54  45  71 SE16G28   29.96R
$$

MTZ009-010-012-014-046-048-049-054-050500-
EAST SLOPES AND CENTRAL MONTANA

CITY           SKY/WX    TMP DP  RH WIND       PRES   REMARKS
CUT BANK       CLOUDY    46  45  96 N10       30.07R FOG
GREAT FALLS    CLOUDY    49  48  97 NW12      30.03R
HELENA         LGT RAIN  51  47  86 W7        29.97R
$$

MTZ011-013-016-021-045-047-050-051-050500-
NORTH CENTRAL MONTANA

CITY           SKY/WX    TMP DP  RH WIND       PRES   REMARKS
HAVRE          LGT RAIN  52  50  93 NE10      30.00F
LEWISTOWN      CLOUDY    51  48  89 N8        29.99F
N BAR RANCH    CLOUDY    50  46  87 E8        30.02F
CHINOOK          N/A     54  48  82 NE3       30.03F
FORT BENTON      N/A     54  50  87 N6        30.01S
$$

MTZ017>020-022>027-061-062-050500-
NORTHEAST MONTANA

CITY           SKY/WX    TMP DP  RH WIND       PRES   REMARKS
GLASGOW        CLOUDY    57  44  62 NE26G35   29.94F
JORDAN           N/A     60  48  64 N21G26    29.93R
SIDNEY         CLOUDY    66  57  72 NE12        N/A
WOLF POINT     CLOUDY    67  49  52 NE18G28   29.93R
PLENTYWOOD       N/A     61  50  67 N15       29.96S
POPLAR           N/A     64  48  55 N15G21    29.93R
$$

MTZ028>42-056>058-050500-
SOUTHCENTRAL AND SOUTHEAST MONTANA

CITY           SKY/WX    TMP DP  RH WIND       PRES   REMARKS
BAKER          PTCLDY    69  62  78 NE14      29.87S
BILLINGS       CLOUDY    58  47  66 NE13      29.96R
LIVINGSTON     CLOUDY    54  47  77 E20G28    29.92S
MILES CITY     MOCLDY    66  57  72 NE6       29.89R
FORSYTH          N/A     66  57  72 N6        29.88S
$$

REGIONAL REPORTS...DAKOTAS

CITY           SKY/WX    TMP DP  RH WIND       PRES   REMARKS
WILLISTON      CLOUDY    63  56  78 NE16      29.93R
MINOT          CLOUDY    60  59  96 N9        29.90R FOG
DICKINSON      CLOUDY    63  59  87 NE13      29.85F
BISMARCK       CLEAR     72  67  84 CALM      29.82R
GRAND FORKS    PTCLDY    67  66  97 N6        29.83S
FARGO          CLEAR     77  71  82 SE9       29.82R
BUFFALO SD       N/A     71  63  75 NE10      29.76F
RAPID CITY     PTCLDY    70  59  68 SE3       29.81F
$$

REGIONAL REPORTS...WYOMING/IDAHO/WASHINGTON

CITY           SKY/WX    TMP DP  RH WIND       PRES   REMARKS
GILLETTE       CLOUDY    68  51  54 N8        29.88F
SHERIDAN       LGT RAIN  59  55  87 NW8       29.94R
BUFFALO WY     MOCLDY    66  47  50 N12       29.95F
CODY           PTCLDY    55  43  62 NW14      29.97R
YELLOWSTONE LA   N/A     52  39  61 VRB7      30.03F
IDAHO FALLS    CLOUDY    65  42  43 SE9       29.76F
SALMON         CLOUDY    48  46  93 SW5       29.85R
BOISE          CLOUDY    53  44  71 N17       29.86R
SPOKANE        MOCLDY    62  30  29 NE7       29.82R
$$

REGIONAL REPORTS...ALBERTA

CITY           SKY/WX    TMP DP  RH WIND       PRES   REMARKS
MEDICINE HAT   LGT RAIN  48  46  93 E9G17     30.09R
$$

REGIONAL REPORTS...SASKATCHEWAN

CITY           SKY/WX    TMP DP  RH WIND       PRES   REMARKS
$$


USA.gov is the U.S. government's official web portal to all federal, state and local government web resources and services.